| time (UTC) | temp F | wind direction | speed MPH | gust MPH | rain 1hr in | rain 24hr in | rain mn in | humidity % | barometer mb |
| 20260510234243 | 70 | 140 | 0.0 | 0.0 | 0.00 | 0.00 | 0.00 | 47 | 1020.8 |
| 20260510233738 | 70 | 140 | 0.0 | 0.0 | 0.00 | 0.00 | 0.00 | 46 | 1020.9 |
| 20260510233235 | 70 | 142 | 0.0 | 0.0 | 0.00 | 0.00 | 0.00 | 46 | 1020.8 |
| 20260510232732 | 70 | 137 | 0.0 | 0.0 | 0.00 | 0.00 | 0.00 | 46 | 1020.7 |
| 20260510232227 | 71 | 134 | 0.0 | 0.0 | 0.00 | 0.00 | 0.00 | 46 | 1020.9 |
| 20260510231724 | 71 | 134 | 0.0 | 0.0 | 0.00 | 0.00 | 0.00 | 45 | 1020.8 |
| 20260510231222 | 71 | 134 | 0.0 | 0.0 | 0.00 | 0.00 | 0.00 | 45 | 1020.8 |
| 20260510230718 | 71 | 134 | 0.0 | 0.0 | 0.00 | 0.00 | 0.00 | 45 | 1020.8 |
| 20260510230213 | 71 | 134 | 0.0 | 0.0 | 0.00 | 0.00 | 0.00 | 44 | 1020.8 |
| 20260510225710 | 71 | 135 | 0.0 | 0.0 | 0.00 | 0.00 | 0.00 | 44 | 1020.7 |
| 20260510225206 | 72 | 139 | 0.0 | 0.0 | 0.00 | 0.00 | 0.00 | 44 | 1020.7 |
| 20260510224702 | 72 | 141 | 0.0 | 0.0 | 0.00 | 0.00 | 0.00 | 44 | 1020.8 |
| 20260510224158 | 72 | 143 | 0.0 | 1.0 | 0.00 | 0.00 | 0.00 | 44 | 1020.7 |
| 20260510223656 | 73 | 140 | 0.0 | 1.0 | 0.00 | 0.00 | 0.00 | 44 | 1020.7 |
| 20260510223154 | 73 | 150 | 0.0 | 0.0 | 0.00 | 0.00 | 0.00 | 44 | 1020.5 |
| 20260510222650 | 73 | 142 | 0.0 | 1.0 | 0.00 | 0.00 | 0.00 | 43 | 1020.7 |
| 20260510222147 | 73 | 142 | 0.0 | 0.0 | 0.00 | 0.00 | 0.00 | 42 | 1020.7 |
| 20260510221642 | 74 | 141 | 1.0 | 1.0 | 0.00 | 0.00 | 0.00 | 42 | 1020.8 |
| 20260510221140 | 74 | 144 | 0.0 | 1.0 | 0.00 | 0.00 | 0.00 | 43 | 1020.5 |
| 20260510220637 | 74 | 143 | 0.0 | 1.0 | 0.00 | 0.00 | 0.00 | 43 | 1020.5 |
| 20260510220131 | 74 | 135 | 0.0 | 0.0 | 0.00 | 0.00 | 0.00 | 42 | 1020.5 |
| 20260510215629 | 74 | 144 | 0.0 | 2.0 | 0.00 | 0.00 | 0.00 | 42 | 1020.4 |
| 20260510215127 | 75 | 146 | 1.0 | 1.0 | 0.00 | 0.00 | 0.00 | 41 | 1020.4 |
| 20260510214624 | 75 | 134 | 0.0 | 0.0 | 0.00 | 0.00 | 0.00 | 40 | 1020.6 |
| 20260510214119 | 75 | 143 | 0.0 | 1.0 | 0.00 | 0.00 | 0.00 | 39 | 1020.4 |
| 20260510213612 | 76 | 151 | 0.0 | 2.0 | 0.00 | 0.00 | 0.00 | 40 | 1020.4 |
| 20260510213108 | 77 | 156 | 0.0 | 0.0 | 0.00 | 0.00 | 0.00 | 39 | 1020.6 |
| 20260510212604 | 77 | 153 | 0.0 | 1.0 | 0.00 | 0.00 | 0.00 | 39 | 1020.4 |
| 20260510212102 | 76 | 144 | 0.0 | 1.0 | 0.00 | 0.00 | 0.00 | 39 | 1020.5 |
| 20260510211558 | 75 | 151 | 0.0 | 1.0 | 0.00 | 0.00 | 0.00 | 40 | 1020.4 |
| 20260510211052 | 75 | 140 | 0.0 | 1.0 | 0.00 | 0.00 | 0.00 | 39 | 1020.5 |
| 20260510210549 | 76 | 162 | 2.0 | 2.0 | 0.00 | 0.00 | 0.00 | 39 | 1020.4 |
| 20260510210045 | 76 | 153 | 0.0 | 1.0 | 0.00 | 0.00 | 0.00 | 39 | 1020.4 |
| 20260510205544 | 77 | 129 | 0.0 | 1.0 | 0.00 | 0.00 | 0.00 | 39 | 1020.4 |
| 20260510205039 | 76 | 137 | 0.0 | 1.0 | 0.00 | 0.00 | 0.00 | 40 | 1020.4 |
| 20260510204536 | 76 | 131 | 0.0 | 1.0 | 0.00 | 0.00 | 0.00 | 40 | 1020.5 |
| 20260510204033 | 76 | 147 | 0.0 | 1.0 | 0.00 | 0.00 | 0.00 | 39 | 1020.4 |
| 20260510203530 | 76 | 107 | 2.0 | 3.0 | 0.00 | 0.00 | 0.00 | 40 | 1020.4 |
| 20260510203027 | 75 | 197 | 1.0 | 2.0 | 0.00 | 0.00 | 0.00 | 39 | 1020.4 |
| 20260510202526 | 76 | 160 | 1.0 | 3.0 | 0.00 | 0.00 | 0.00 | 39 | 1020.3 |
| 20260510202023 | 77 | 131 | 1.0 | 2.0 | 0.00 | 0.00 | 0.00 | 40 | 1020.5 |
| 20260510201520 | 76 | 135 | 0.0 | 1.0 | 0.00 | 0.00 | 0.00 | 39 | 1020.7 |
| 20260510201016 | 76 | 140 | 0.0 | 1.0 | 0.00 | 0.00 | 0.00 | 39 | 1020.6 |
| 20260510200512 | 76 | 131 | 1.0 | 1.0 | 0.00 | 0.00 | 0.00 | 39 | 1020.6 |
| 20260510200010 | 75 | 158 | 2.0 | 2.0 | 0.00 | 0.00 | 0.00 | 39 | 1020.5 |
| 20260510195508 | 75 | 146 | 0.0 | 2.0 | 0.00 | 0.00 | 0.00 | 39 | 1020.6 |
| 20260510195003 | 76 | 128 | 1.0 | 3.0 | 0.00 | 0.00 | 0.00 | 39 | 1020.7 |
| 20260510194459 | 76 | 134 | 1.0 | 2.0 | 0.00 | 0.00 | 0.00 | 40 | 1020.5 |
| 20260510193955 | 75 | 134 | 0.0 | 0.0 | 0.00 | 0.00 | 0.00 | 40 | 1020.6 |
| 20260510193450 | 75 | 147 | 1.0 | 2.0 | 0.00 | 0.00 | 0.00 | 40 | 1020.6 |
| 20260510192945 | 76 | 142 | 2.0 | 5.0 | 0.00 | 0.00 | 0.00 | 41 | 1020.5 |
| 20260510192440 | 75 | 139 | 0.0 | 1.0 | 0.00 | 0.00 | 0.00 | 41 | 1020.5 |
| 20260510191936 | 75 | 57 | 1.0 | 3.0 | 0.00 | 0.00 | 0.00 | 41 | 1020.4 |
| 20260510191432 | 75 | 71 | 1.0 | 1.0 | 0.00 | 0.00 | 0.00 | 41 | 1020.6 |
| 20260510190930 | 76 | 150 | 2.0 | 2.0 | 0.00 | 0.00 | 0.00 | 42 | 1020.4 |
| 20260510190422 | 75 | 135 | 0.0 | 2.0 | 0.00 | 0.00 | 0.00 | 43 | 1020.6 |
| 20260510185918 | 74 | 144 | 2.0 | 3.0 | 0.00 | 0.00 | 0.00 | 43 | 1020.5 |
| 20260510185416 | 75 | 173 | 2.0 | 3.0 | 0.00 | 0.00 | 0.00 | 42 | 1020.3 |
| 20260510184913 | 75 | 129 | 1.0 | 2.0 | 0.00 | 0.00 | 0.00 | 43 | 1020.7 |
| 20260510184410 | 75 | 134 | 2.0 | 2.0 | 0.00 | 0.00 | 0.00 | 44 | 1020.6 |
| 20260510183909 | 75 | 137 | 0.0 | 1.0 | 0.00 | 0.00 | 0.00 | 44 | 1020.8 |
| 20260510183406 | 75 | 142 | 0.0 | 1.0 | 0.00 | 0.00 | 0.00 | 45 | 1020.6 |
| 20260510182901 | 74 | 139 | 1.0 | 1.0 | 0.00 | 0.00 | 0.00 | 45 | 1020.8 |
| 20260510182357 | 75 | 265 | 4.0 | 5.0 | 0.00 | 0.00 | 0.00 | 45 | 1020.7 |
| 20260510181853 | 74 | 130 | 1.0 | 2.0 | 0.00 | 0.00 | 0.00 | 46 | 1020.7 |
| 20260510181351 | 75 | 253 | 2.0 | 3.0 | 0.00 | 0.00 | 0.00 | 47 | 1020.5 |
| 20260510180847 | 74 | 145 | 0.0 | 1.0 | 0.00 | 0.00 | 0.00 | 48 | 1020.9 |
| 20260510180344 | 74 | 159 | 1.0 | 2.0 | 0.00 | 0.00 | 0.00 | 49 | 1020.8 |
| 20260510175841 | 73 | 218 | 1.0 | 2.0 | 0.00 | 0.00 | 0.00 | 48 | 1020.7 |
| 20260510175337 | 74 | 141 | 0.0 | 2.0 | 0.00 | 0.00 | 0.00 | 48 | 1021.0 |
| 20260510174833 | 74 | 164 | 1.0 | 3.0 | 0.00 | 0.00 | 0.00 | 48 | 1020.7 |
| 20260510174331 | 74 | 133 | 0.0 | 1.0 | 0.00 | 0.00 | 0.00 | 49 | 1020.9 |
| 20260510173827 | 73 | 148 | 1.0 | 2.0 | 0.00 | 0.00 | 0.00 | 49 | 1021.0 |
| 20260510173323 | 74 | 135 | 0.0 | 3.0 | 0.00 | 0.00 | 0.00 | 50 | 1021.1 |
| 20260510172819 | 74 | 141 | 0.0 | 2.0 | 0.00 | 0.00 | 0.00 | 51 | 1020.8 |
| 20260510172315 | 74 | 251 | 3.0 | 5.0 | 0.00 | 0.00 | 0.00 | 52 | 1020.9 |
| 20260510171812 | 74 | 122 | 2.0 | 2.0 | 0.00 | 0.00 | 0.00 | 54 | 1020.9 |
| 20260510171309 | 74 | 132 | 0.0 | 1.0 | 0.00 | 0.00 | 0.00 | 54 | 1020.8 |
| 20260510170806 | 73 | 141 | 0.0 | 1.0 | 0.00 | 0.00 | 0.00 | 54 | 1020.9 |
| 20260510170302 | 74 | 135 | 0.0 | 2.0 | 0.00 | 0.00 | 0.00 | 54 | 1020.7 |
| 20260510165752 | 74 | 115 | 1.0 | 3.0 | 0.00 | 0.00 | 0.00 | 55 | 1020.8 |
| 20260510165249 | 73 | 150 | 0.0 | 1.0 | 0.00 | 0.00 | 0.00 | 56 | 1020.8 |
| 20260510164746 | 73 | 135 | 1.0 | 1.0 | 0.00 | 0.00 | 0.00 | 56 | 1020.7 |
| 20260510164243 | 74 | 125 | 1.0 | 2.0 | 0.00 | 0.00 | 0.00 | 58 | 1020.5 |
| 20260510163738 | 73 | 137 | 0.0 | 2.0 | 0.00 | 0.00 | 0.00 | 59 | 1020.5 |
| 20260510163234 | 73 | 178 | 1.0 | 2.0 | 0.00 | 0.00 | 0.00 | 60 | 1020.5 |
| 20260510162733 | 73 | 138 | 2.0 | 3.0 | 0.00 | 0.00 | 0.00 | 61 | 1020.5 |
| 20260510162232 | 72 | 134 | 1.0 | 2.0 | 0.00 | 0.00 | 0.00 | 62 | 1020.4 |
| 20260510161727 | 73 | 160 | 1.0 | 2.0 | 0.00 | 0.00 | 0.00 | 62 | 1020.3 |
| 20260510161223 | 72 | 128 | 1.0 | 1.0 | 0.00 | 0.00 | 0.00 | 63 | 1020.6 |
| 20260510160720 | 72 | 140 | 0.0 | 3.0 | 0.00 | 0.00 | 0.00 | 63 | 1020.3 |
| 20260510160215 | 73 | 79 | 2.0 | 2.0 | 0.00 | 0.00 | 0.00 | 65 | 1020.3 |
| 20260510155712 | 72 | 147 | 0.0 | 1.0 | 0.00 | 0.00 | 0.00 | 66 | 1020.2 |
| 20260510155208 | 71 | 134 | 0.0 | 1.0 | 0.00 | 0.00 | 0.00 | 67 | 1020.2 |
| 20260510154703 | 71 | 139 | 1.0 | 2.0 | 0.00 | 0.00 | 0.00 | 67 | 1020.1 |
| 20260510154159 | 71 | 151 | 2.0 | 3.0 | 0.00 | 0.00 | 0.00 | 67 | 1020.0 |
| 20260510153654 | 71 | 117 | 1.0 | 2.0 | 0.00 | 0.00 | 0.00 | 67 | 1020.1 |
| 20260510153151 | 72 | 205 | 3.0 | 3.0 | 0.00 | 0.00 | 0.00 | 66 | 1019.9 |
| 20260510152648 | 72 | 139 | 0.0 | 1.0 | 0.00 | 0.00 | 0.00 | 67 | 1019.7 |
| 20260510152144 | 71 | 133 | 0.0 | 1.0 | 0.00 | 0.00 | 0.00 | 68 | 1019.8 |
| 20260510151640 | 71 | 130 | 1.0 | 2.0 | 0.00 | 0.00 | 0.00 | 69 | 1019.8 |
| 20260510151139 | 71 | 136 | 0.0 | 3.0 | 0.00 | 0.00 | 0.00 | 69 | 1019.6 |
| 20260510150634 | 70 | 122 | 0.0 | 1.0 | 0.00 | 0.00 | 0.00 | 70 | 1019.9 |
| 20260510150130 | 69 | 177 | 2.0 | 2.0 | 0.00 | 0.00 | 0.00 | 70 | 1019.7 |
| 20260510145626 | 70 | 134 | 0.0 | 2.0 | 0.00 | 0.00 | 0.00 | 72 | 1019.8 |
| 20260510145123 | 69 | 148 | 2.0 | 2.0 | 0.00 | 0.00 | 0.00 | 73 | 1019.9 |
| 20260510144619 | 69 | 138 | 1.0 | 1.0 | 0.00 | 0.00 | 0.00 | 73 | 1019.7 |
| 20260510144115 | 68 | 145 | 1.0 | 1.0 | 0.00 | 0.00 | 0.00 | 74 | 1019.6 |
| 20260510143611 | 68 | 151 | 0.0 | 0.0 | 0.00 | 0.00 | 0.00 | 74 | 1019.7 |
| 20260510143108 | 67 | 137 | 0.0 | 0.0 | 0.00 | 0.00 | 0.00 | 75 | 1019.6 |
| 20260510142604 | 67 | 151 | 0.0 | 2.0 | 0.00 | 0.00 | 0.00 | 75 | 1019.5 |
| 20260510142101 | 67 | 140 | 0.0 | 1.0 | 0.00 | 0.00 | 0.00 | 76 | 1019.5 |
| 20260510141558 | 67 | 134 | 0.0 | 0.0 | 0.00 | 0.00 | 0.00 | 77 | 1019.5 |
| 20260510141056 | 67 | 139 | 0.0 | 0.0 | 0.00 | 0.00 | 0.00 | 77 | 1019.7 |
| 20260510140551 | 66 | 147 | 0.0 | 0.0 | 0.00 | 0.00 | 0.00 | 77 | 1019.4 |
| 20260510140051 | 66 | 150 | 0.0 | 2.0 | 0.00 | 0.00 | 0.00 | 78 | 1019.5 |
| 20260510135547 | 66 | 161 | 1.0 | 1.0 | 0.00 | 0.00 | 0.00 | 78 | 1019.3 |
| 20260510135043 | 66 | 137 | 0.0 | 0.0 | 0.00 | 0.00 | 0.00 | 79 | 1019.3 |
| 20260510134540 | 66 | 149 | 0.0 | 0.0 | 0.00 | 0.00 | 0.00 | 79 | 1019.4 |
| 20260510134037 | 65 | 139 | 0.0 | 0.0 | 0.00 | 0.00 | 0.00 | 80 | 1019.2 |
| 20260510133533 | 65 | 138 | 0.0 | 0.0 | 0.00 | 0.00 | 0.00 | 80 | 1019.4 |
| 20260510133029 | 65 | 138 | 0.0 | 0.0 | 0.00 | 0.00 | 0.00 | 81 | 1019.5 |
| 20260510132526 | 65 | 140 | 0.0 | 0.0 | 0.00 | 0.00 | 0.00 | 82 | 1019.5 |
| 20260510132023 | 65 | 152 | 0.0 | 0.0 | 0.00 | 0.00 | 0.00 | 83 | 1019.0 |
| 20260510131521 | 64 | 144 | 1.0 | 1.0 | 0.00 | 0.00 | 0.00 | 83 | 1019.0 |
| 20260510131018 | 64 | 151 | 0.0 | 1.0 | 0.00 | 0.00 | 0.00 | 84 | 1019.0 |
| 20260510130514 | 63 | 135 | 0.0 | 2.0 | 0.00 | 0.00 | 0.00 | 85 | 1018.7 |
| 20260510130012 | 63 | 138 | 0.0 | 0.0 | 0.00 | 0.00 | 0.00 | 86 | 1018.7 |
| 20260510125508 | 62 | 153 | 0.0 | 0.0 | 0.00 | 0.00 | 0.00 | 87 | 1018.8 |
| 20260510125004 | 62 | 153 | 0.0 | 0.0 | 0.00 | 0.00 | 0.00 | 88 | 1018.7 |
| 20260510124501 | 61 | 153 | 0.0 | 0.0 | 0.00 | 0.00 | 0.00 | 88 | 1018.6 |
| 20260510123958 | 61 | 154 | 0.0 | 0.0 | 0.00 | 0.00 | 0.00 | 88 | 1018.5 |
| 20260510123453 | 60 | 154 | 0.0 | 0.0 | 0.00 | 0.00 | 0.00 | 88 | 1018.5 |
| 20260510122950 | 60 | 154 | 0.0 | 0.0 | 0.00 | 0.00 | 0.00 | 88 | 1018.4 |
| 20260510122445 | 59 | 154 | 0.0 | 0.0 | 0.00 | 0.00 | 0.00 | 88 | 1018.3 |
| 20260510121941 | 59 | 154 | 0.0 | 0.0 | 0.00 | 0.00 | 0.00 | 88 | 1018.3 |
| 20260510121439 | 59 | 154 | 0.0 | 0.0 | 0.00 | 0.00 | 0.00 | 87 | 1017.9 |
| 20260510120936 | 59 | 154 | 0.0 | 0.0 | 0.00 | 0.00 | 0.00 | 87 | 1018.1 |
| 20260510120433 | 59 | 154 | 0.0 | 0.0 | 0.00 | 0.00 | 0.00 | 87 | 1017.9 |
| 20260510115929 | 59 | 154 | 0.0 | 0.0 | 0.00 | 0.00 | 0.00 | 87 | 1017.5 |
| 20260510115426 | 59 | 154 | 0.0 | 0.0 | 0.00 | 0.00 | 0.00 | 87 | 1017.5 |
| 20260510114922 | 59 | 154 | 0.0 | 0.0 | 0.00 | 0.00 | 0.00 | 87 | 1017.4 |
| 20260510114419 | 59 | 154 | 0.0 | 0.0 | 0.00 | 0.00 | 0.00 | 87 | 1017.2 |
| 20260510113914 | 59 | 154 | 0.0 | 0.0 | 0.00 | 0.00 | 0.00 | 87 | 1017.2 |
| 20260510113410 | 59 | 154 | 0.0 | 0.0 | 0.00 | 0.00 | 0.00 | 87 | 1017.3 |
| 20260510112908 | 59 | 154 | 0.0 | 0.0 | 0.00 | 0.00 | 0.00 | 87 | 1017.2 |
| 20260510112405 | 59 | 154 | 0.0 | 0.0 | 0.00 | 0.00 | 0.00 | 87 | 1016.8 |
| 20260510111901 | 59 | 154 | 0.0 | 0.0 | 0.00 | 0.00 | 0.00 | 87 | 1017.2 |
| 20260510111357 | 59 | 154 | 0.0 | 0.0 | 0.00 | 0.00 | 0.00 | 87 | 1016.9 |
| 20260510110852 | 59 | 154 | 0.0 | 0.0 | 0.00 | 0.00 | 0.00 | 87 | 1016.7 |
| 20260510110349 | 59 | 154 | 0.0 | 0.0 | 0.00 | 0.00 | 0.00 | 87 | 1016.8 |
| 20260510105845 | 59 | 154 | 0.0 | 0.0 | 0.00 | 0.00 | 0.00 | 87 | 1016.7 |
| 20260510105345 | 59 | 154 | 0.0 | 0.0 | 0.00 | 0.00 | 0.00 | 87 | 1016.9 |
| 20260510104841 | 59 | 154 | 0.0 | 0.0 | 0.00 | 0.00 | 0.00 | 87 | 1016.9 |
| 20260510104339 | 59 | 154 | 0.0 | 0.0 | 0.00 | 0.00 | 0.00 | 88 | 1016.7 |
| 20260510103834 | 60 | 154 | 0.0 | 0.0 | 0.00 | 0.00 | 0.00 | 88 | 1016.8 |
| 20260510103332 | 60 | 154 | 0.0 | 0.0 | 0.00 | 0.00 | 0.00 | 88 | 1016.6 |
| 20260510102827 | 60 | 154 | 0.0 | 0.0 | 0.00 | 0.00 | 0.00 | 88 | 1016.9 |
| 20260510102323 | 59 | 154 | 0.0 | 1.0 | 0.00 | 0.00 | 0.00 | 89 | 1016.6 |
| 20260510101820 | 59 | 154 | 0.0 | 0.0 | 0.00 | 0.00 | 0.00 | 89 | 1016.6 |
| 20260510101318 | 59 | 154 | 0.0 | 1.0 | 0.00 | 0.00 | 0.00 | 90 | 1016.4 |
| 20260510100814 | 58 | 154 | 0.0 | 0.0 | 0.00 | 0.00 | 0.00 | 90 | 1016.4 |
| 20260510100312 | 58 | 154 | 0.0 | 0.0 | 0.00 | 0.00 | 0.00 | 90 | 1016.4 |
| 20260510095807 | 58 | 153 | 0.0 | 0.0 | 0.00 | 0.00 | 0.00 | 91 | 1016.5 |
| 20260510095305 | 58 | 154 | 0.0 | 0.0 | 0.00 | 0.00 | 0.00 | 91 | 1016.4 |
| 20260510094757 | 58 | 153 | 0.0 | 0.0 | 0.00 | 0.00 | 0.00 | 92 | 1016.2 |
| 20260510094252 | 58 | 153 | 0.0 | 1.0 | 0.00 | 0.00 | 0.00 | 92 | 1016.1 |
| 20260510093748 | 57 | 153 | 0.0 | 0.0 | 0.00 | 0.00 | 0.00 | 92 | 1016.3 |
| 20260510093246 | 57 | 153 | 0.0 | 0.0 | 0.00 | 0.00 | 0.00 | 93 | 1016.2 |
| 20260510092742 | 57 | 153 | 0.0 | 0.0 | 0.00 | 0.00 | 0.00 | 93 | 1016.2 |
| 20260510092237 | 56 | 154 | 0.0 | 0.0 | 0.00 | 0.00 | 0.00 | 93 | 1016.1 |
| 20260510091733 | 55 | 154 | 0.0 | 0.0 | 0.00 | 0.00 | 0.00 | 93 | 1016.2 |
| 20260510091231 | 55 | 154 | 0.0 | 0.0 | 0.00 | 0.00 | 0.00 | 93 | 1016.2 |
| 20260510090726 | 55 | 154 | 0.0 | 0.0 | 0.00 | 0.00 | 0.00 | 93 | 1016.2 |
| 20260510090224 | 55 | 153 | 0.0 | 0.0 | 0.00 | 0.00 | 0.00 | 93 | 1016.4 |
| 20260510085719 | 55 | 153 | 0.0 | 0.0 | 0.00 | 0.00 | 0.00 | 93 | 1016.1 |
| 20260510085214 | 55 | 153 | 0.0 | 0.0 | 0.00 | 0.00 | 0.00 | 93 | 1016.0 |
| 20260510084710 | 55 | 153 | 0.0 | 0.0 | 0.00 | 0.00 | 0.00 | 93 | 1015.8 |
| 20260510084208 | 55 | 153 | 0.0 | 0.0 | 0.00 | 0.00 | 0.00 | 93 | 1015.6 |
| 20260510083704 | 55 | 153 | 0.0 | 0.0 | 0.00 | 0.00 | 0.00 | 93 | 1015.6 |
| 20260510083201 | 55 | 153 | 0.0 | 0.0 | 0.00 | 0.00 | 0.00 | 93 | 1015.6 |
| 20260510082656 | 55 | 153 | 0.0 | 0.0 | 0.00 | 0.00 | 0.00 | 93 | 1015.5 |
| 20260510082153 | 55 | 152 | 0.0 | 0.0 | 0.00 | 0.00 | 0.00 | 92 | 1015.5 |
| 20260510081647 | 55 | 152 | 0.0 | 0.0 | 0.00 | 0.00 | 0.00 | 92 | 1015.5 |
| 20260510081143 | 55 | 152 | 0.0 | 0.0 | 0.00 | 0.00 | 0.00 | 92 | 1015.5 |
| 20260510080643 | 55 | 152 | 0.0 | 0.0 | 0.00 | 0.00 | 0.00 | 92 | 1015.4 |
| 20260510080140 | 55 | 152 | 0.0 | 0.0 | 0.00 | 0.00 | 0.00 | 92 | 1015.4 |
| 20260510075637 | 54 | 152 | 0.0 | 0.0 | 0.00 | 0.00 | 0.00 | 92 | 1015.4 |
| 20260510075134 | 54 | 152 | 0.0 | 0.0 | 0.00 | 0.00 | 0.00 | 92 | 1015.2 |
| 20260510074631 | 54 | 153 | 0.0 | 0.0 | 0.00 | 0.00 | 0.00 | 91 | 1015.4 |
| 20260510074127 | 54 | 153 | 0.0 | 0.0 | 0.00 | 0.00 | 0.00 | 91 | 1015.2 |
| 20260510073623 | 54 | 153 | 0.0 | 0.0 | 0.00 | 0.00 | 0.00 | 91 | 1015.0 |
| 20260510073120 | 54 | 153 | 0.0 | 0.0 | 0.00 | 0.00 | 0.00 | 91 | 1015.2 |
| 20260510072616 | 54 | 153 | 0.0 | 0.0 | 0.00 | 0.00 | 0.00 | 91 | 1015.0 |
| 20260510072113 | 54 | 153 | 0.0 | 0.0 | 0.00 | 0.00 | 0.00 | 91 | 1014.8 |
| 20260510071608 | 53 | 153 | 0.0 | 0.0 | 0.00 | 0.00 | 0.00 | 90 | 1014.9 |
| 20260510071107 | 53 | 153 | 0.0 | 0.0 | 0.00 | 0.00 | 0.00 | 90 | 1014.8 |
| 20260510070603 | 54 | 153 | 0.0 | 0.0 | 0.00 | 0.00 | 0.00 | 90 | 1014.8 |
| 20260510065557 | 54 | 153 | 0.0 | 0.0 | 0.00 | 0.00 | 0.00 | 90 | 1014.9 |
| 20260510065053 | 54 | 153 | 0.0 | 0.0 | 0.00 | 0.00 | 0.00 | 90 | 1015.1 |
| 20260510064549 | 54 | 153 | 0.0 | 0.0 | 0.00 | 0.00 | 0.00 | 89 | 1015.0 |
| 20260510064046 | 54 | 153 | 0.0 | 0.0 | 0.00 | 0.00 | 0.00 | 89 | 1014.9 |
| 20260510063543 | 54 | 153 | 0.0 | 0.0 | 0.00 | 0.00 | 0.00 | 89 | 1015.0 |
| 20260510063040 | 54 | 153 | 0.0 | 0.0 | 0.00 | 0.00 | 0.00 | 89 | 1015.0 |
| 20260510062536 | 54 | 153 | 0.0 | 0.0 | 0.00 | 0.00 | 0.00 | 89 | 1015.1 |
| 20260510062031 | 55 | 153 | 0.0 | 0.0 | 0.00 | 0.00 | 0.00 | 88 | 1015.1 |
| 20260510061528 | 55 | 153 | 0.0 | 0.0 | 0.00 | 0.00 | 0.00 | 88 | 1015.2 |
| 20260510061025 | 55 | 153 | 0.0 | 0.0 | 0.00 | 0.00 | 0.00 | 88 | 1015.2 |
| 20260510060521 | 55 | 153 | 0.0 | 0.0 | 0.00 | 0.00 | 0.00 | 88 | 1015.2 |
| 20260510060017 | 55 | 152 | 0.0 | 0.0 | 0.00 | 0.00 | 0.00 | 87 | 1015.1 |
| 20260510055513 | 55 | 152 | 0.0 | 0.0 | 0.00 | 0.00 | 0.00 | 87 | 1015.1 |
| 20260510055012 | 55 | 152 | 0.0 | 0.0 | 0.00 | 0.00 | 0.00 | 87 | 1015.3 |
| 20260510054507 | 55 | 152 | 0.0 | 0.0 | 0.00 | 0.00 | 0.00 | 87 | 1015.4 |
| 20260510054003 | 55 | 152 | 0.0 | 0.0 | 0.00 | 0.00 | 0.00 | 86 | 1015.5 |
| 20260510053457 | 55 | 152 | 0.0 | 0.0 | 0.00 | 0.00 | 0.00 | 86 | 1015.2 |
| 20260510052954 | 55 | 152 | 0.0 | 0.0 | 0.00 | 0.00 | 0.00 | 86 | 1015.3 |
| 20260510052450 | 55 | 152 | 0.0 | 0.0 | 0.00 | 0.00 | 0.00 | 86 | 1015.5 |
| 20260510051947 | 55 | 152 | 0.0 | 0.0 | 0.00 | 0.00 | 0.00 | 85 | 1015.5 |
| 20260510051442 | 56 | 152 | 0.0 | 0.0 | 0.00 | 0.00 | 0.00 | 85 | 1015.5 |
| 20260510050939 | 56 | 152 | 0.0 | 0.0 | 0.00 | 0.00 | 0.00 | 85 | 1015.5 |
| 20260510050436 | 56 | 152 | 0.0 | 0.0 | 0.00 | 0.00 | 0.00 | 84 | 1015.4 |
| 20260510045934 | 56 | 152 | 0.0 | 0.0 | 0.00 | 0.00 | 0.00 | 84 | 1015.6 |
| 20260510045431 | 56 | 152 | 0.0 | 0.0 | 0.00 | 0.00 | 0.00 | 83 | 1015.6 |
| 20260510044927 | 57 | 152 | 0.0 | 0.0 | 0.00 | 0.00 | 0.00 | 83 | 1015.6 |
| 20260510044424 | 57 | 152 | 0.0 | 0.0 | 0.00 | 0.00 | 0.00 | 83 | 1015.6 |
| 20260510043921 | 57 | 152 | 0.0 | 0.0 | 0.00 | 0.00 | 0.00 | 82 | 1015.6 |
| 20260510043417 | 57 | 152 | 0.0 | 0.0 | 0.00 | 0.00 | 0.00 | 82 | 1015.5 |
| 20260510042915 | 57 | 152 | 0.0 | 0.0 | 0.00 | 0.00 | 0.00 | 82 | 1015.4 |
| 20260510042411 | 57 | 152 | 0.0 | 0.0 | 0.00 | 0.00 | 0.00 | 81 | 1015.3 |
| 20260510041906 | 58 | 152 | 0.0 | 0.0 | 0.00 | 0.00 | 0.00 | 81 | 1015.5 |
| 20260510041404 | 58 | 152 | 0.0 | 0.0 | 0.00 | 0.00 | 0.00 | 80 | 1015.2 |
| 20260510040902 | 58 | 153 | 0.0 | 0.0 | 0.00 | 0.00 | 0.00 | 80 | 1015.6 |
| 20260510040358 | 58 | 142 | 0.0 | 0.0 | 0.00 | 0.00 | 0.00 | 79 | 1015.5 |
| 20260510035854 | 58 | 142 | 0.0 | 0.0 | 0.00 | 0.00 | 0.00 | 79 | 1015.6 |
| 20260510035349 | 59 | 146 | 0.0 | 0.0 | 0.00 | 0.00 | 0.00 | 78 | 1015.4 |
| 20260510034845 | 59 | 149 | 0.0 | 0.0 | 0.00 | 0.00 | 0.00 | 77 | 1015.5 |
| 20260510034343 | 59 | 149 | 0.0 | 0.0 | 0.00 | 0.00 | 0.00 | 77 | 1015.4 |
| 20260510033839 | 59 | 149 | 0.0 | 0.0 | 0.00 | 0.00 | 0.00 | 76 | 1015.5 |
| 20260510033336 | 60 | 149 | 0.0 | 0.0 | 0.00 | 0.00 | 0.00 | 76 | 1015.5 |
| 20260510032833 | 60 | 149 | 0.0 | 0.0 | 0.00 | 0.00 | 0.00 | 75 | 1015.1 |
| 20260510032330 | 60 | 149 | 0.0 | 0.0 | 0.00 | 0.00 | 0.00 | 74 | 1015.3 |
| 20260510031825 | 60 | 149 | 0.0 | 0.0 | 0.00 | 0.00 | 0.00 | 74 | 1015.4 |
| 20260510031321 | 60 | 149 | 0.0 | 0.0 | 0.00 | 0.00 | 0.00 | 73 | 1015.4 |
| 20260510030815 | 61 | 149 | 0.0 | 0.0 | 0.00 | 0.00 | 0.00 | 72 | 1015.2 |
| 20260510030312 | 61 | 149 | 0.0 | 0.0 | 0.00 | 0.00 | 0.00 | 71 | 1015.3 |
| 20260510025809 | 62 | 149 | 0.0 | 0.0 | 0.00 | 0.00 | 0.00 | 71 | 1015.3 |
| 20260510025307 | 62 | 149 | 0.0 | 0.0 | 0.00 | 0.00 | 0.00 | 70 | 1015.3 |
| 20260510024803 | 62 | 149 | 0.0 | 0.0 | 0.00 | 0.00 | 0.00 | 69 | 1015.2 |
| 20260510024300 | 62 | 149 | 0.0 | 0.0 | 0.00 | 0.00 | 0.00 | 68 | 1015.1 |
| 20260510023756 | 62 | 149 | 0.0 | 0.0 | 0.00 | 0.00 | 0.00 | 67 | 1014.8 |
| 20260510023253 | 63 | 149 | 0.0 | 0.0 | 0.00 | 0.00 | 0.00 | 66 | 1014.9 |
| 20260510022750 | 63 | 149 | 0.0 | 0.0 | 0.00 | 0.00 | 0.00 | 65 | 1015.1 |
| 20260510022250 | 64 | 149 | 0.0 | 0.0 | 0.00 | 0.00 | 0.00 | 64 | 1014.7 |
| 20260510021749 | 65 | 149 | 0.0 | 0.0 | 0.00 | 0.00 | 0.00 | 63 | 1014.8 |
| 20260510021247 | 65 | 149 | 0.0 | 0.0 | 0.00 | 0.00 | 0.00 | 61 | 1014.7 |
| 20260510020743 | 66 | 149 | 0.0 | 0.0 | 0.00 | 0.00 | 0.00 | 60 | 1014.8 |
| 20260510020242 | 66 | 149 | 0.0 | 0.0 | 0.00 | 0.00 | 0.00 | 59 | 1014.6 |
| 20260510015739 | 66 | 149 | 0.0 | 0.0 | 0.00 | 0.00 | 0.00 | 59 | 1014.3 |
| 20260510015235 | 66 | 149 | 0.0 | 0.0 | 0.00 | 0.00 | 0.00 | 58 | 1014.3 |
| 20260510014730 | 67 | 149 | 0.0 | 0.0 | 0.00 | 0.00 | 0.00 | 58 | 1014.3 |
| 20260510014228 | 67 | 149 | 0.0 | 0.0 | 0.00 | 0.00 | 0.00 | 57 | 1014.1 |
| 20260510013724 | 68 | 149 | 0.0 | 0.0 | 0.00 | 0.00 | 0.00 | 57 | 1014.1 |
| 20260510013219 | 68 | 149 | 0.0 | 0.0 | 0.00 | 0.00 | 0.00 | 56 | 1014.0 |
| 20260510012719 | 68 | 149 | 0.0 | 0.0 | 0.00 | 0.00 | 0.00 | 56 | 1013.8 |
| 20260510012214 | 68 | 148 | 0.0 | 0.0 | 0.00 | 0.00 | 0.00 | 55 | 1014.0 |
| 20260510011709 | 68 | 148 | 0.0 | 0.0 | 0.00 | 0.00 | 0.00 | 55 | 1013.9 |
| 20260510011205 | 69 | 149 | 0.0 | 0.0 | 0.00 | 0.00 | 0.00 | 54 | 1013.8 |
| 20260510010702 | 69 | 148 | 0.0 | 0.0 | 0.00 | 0.00 | 0.00 | 54 | 1013.9 |
| 20260510010159 | 69 | 151 | 0.0 | 0.0 | 0.00 | 0.00 | 0.00 | 53 | 1013.6 |
| 20260510005655 | 70 | 152 | 0.0 | 0.0 | 0.00 | 0.00 | 0.00 | 53 | 1013.7 |
| 20260510005151 | 70 | 147 | 0.0 | 0.0 | 0.00 | 0.00 | 0.00 | 52 | 1013.6 |
| 20260510004650 | 71 | 149 | 0.0 | 0.0 | 0.00 | 0.00 | 0.00 | 52 | 1013.5 |
| 20260510004148 | 71 | 148 | 0.0 | 0.0 | 0.00 | 0.00 | 0.00 | 52 | 1013.4 |
| 20260510003645 | 71 | 159 | 2.0 | 3.0 | 0.00 | 0.00 | 0.00 | 51 | 1013.3 |
| 20260510003140 | 72 | 169 | 1.0 | 1.0 | 0.00 | 0.00 | 0.00 | 51 | 1013.0 |
| 20260510002640 | 72 | 134 | 0.0 | 0.0 | 0.00 | 0.00 | 0.00 | 50 | 1013.0 |
| 20260510002138 | 73 | 143 | 0.0 | 1.0 | 0.00 | 0.00 | 0.00 | 49 | 1012.9 |
| 20260510001634 | 73 | 151 | 0.0 | 2.0 | 0.00 | 0.00 | 0.00 | 49 | 1012.8 |
| 20260510001133 | 73 | 159 | 2.0 | 2.0 | 0.00 | 0.00 | 0.00 | 49 | 1012.8 |
| 20260510000633 | 74 | 152 | 0.0 | 1.0 | 0.00 | 0.00 | 0.00 | 48 | 1012.9 |
| 20260510000131 | 74 | 155 | 1.0 | 2.0 | 0.00 | 0.00 | 0.00 | 48 | 1012.7 |
| 20260509235627 | 74 | 166 | 1.0 | 2.0 | 0.00 | 0.00 | 0.00 | 48 | 1012.5 |
| 20260509235124 | 74 | 144 | 0.0 | 3.0 | 0.00 | 0.00 | 0.00 | 47 | 1012.5 |
| 20260509234620 | 74 | 213 | 3.0 | 5.0 | 0.00 | 0.00 | 0.00 | 47 | 1012.3 |